CZ-4 DEB, 26241

Orbit data source: Space-Track

CZ-4 DEB, 26241 is space debris in SSO originally from a launch on Thu, 14 Oct 1999 UTC launched from the Taiyaun Space Center, China (TSC). Debris objects in space refer to the collection of defunct objects orbiting the Earth. Examples of debris include non-operational satellites, rocket bodies, and fragments generated from explosions, collisions, or faulty payload assembly.

Loading next visibility...
Identifier
26241, 1999-057EF
Orbit
SSO
Country
Flag of CNCN / PRC
Related business
Manufacturer
Unknown
Mission
Spacecraft
Bus & Motor
Unknown
Mass
Unknown
Launch date (UTC)
1999-10-14 (26 years ago)
Launch vehicle
Unknown
Launch site
Taiyaun Space Center, China (TSC)
Object type
Payload
Rocket body
Debris
Shape & HBR
Unknown shape, 0.3 m
Radar Cross Section
Small (<0.1 m²)

Expand to show TLE details & history
Last TLE update: 6 hours ago

TLE from 6 hours ago
0 CZ-4 DEB
1 26241U 99057EF  25300.93710211  .00000665  00000-0  23736-3 0  9990
2 26241  98.9095 309.0514 0108539 353.0576  68.8933 14.34429946338382
Epoch: 2025-10-27T22:29Z
TLE epoch observation values (Epoch: 2025-10-27T22:29:25.622Z)
Latitude
61.8789°
Longitude
-81.80105°
Altitude
760.288 km
Speed
7.494 km/s
True Right ascension
19h 28m 20s
True Declination
61° 44' 09"
Sunlit
Object was in daylight at epoch
Visualization orbit readout
Latitude
Unknown
Longitude
Unknown
Altitude
Unknown
Speed
Unknown
Apparent Right ascension
Unknown
Apparent Declination
Unknown
Sunlit
N/A
Visualization observer readout
Local Sidereal Time
00:12:57
Azimuth
Unknown
Elevation
Unknown
Doppler factor
Unknown
Orbital elements
Apogee altitude
851.74 km
Perigee altitude
696.48 km
Semi-major axis
7,152.247 km
Eccentricity
0.01085
Inclination
98.9095°
RAAN
309.0514°
Arg. of periapsis
353.0576°
True anomaly
70.05924°
Mean anomaly
68.8933°
Eccentric anomaly
69.47571°
Mean motion
3.58822 °/min
Orbital period
100.33 mins
BSTAR
0.00023736
Loading maneuver chart data...
Computing Atmospheric mass density...
Loading historical data...
Loading historical data...
Loading historical data...
Loading historical data...
Loading historical data...
Loading historical data...
Loading historical data...

Documentation

Showing up to 5 results
|